NOAA 16 DEB, 42390

Orbit data source: Space-Track

NOAA 16 DEB, 42390 is space debris in SSO originally from a launch on Thu, 21 Sep 2000 UTC launched from the Air Force Western Test Range (AFWTR). Debris objects in space refer to the collection of defunct objects orbiting the Earth. Examples of debris include non-operational satellites, rocket bodies, and fragments generated from explosions, collisions, or faulty payload assembly.

Loading next visibility...
Identifier
42390, 2000-055SJ
Orbit
SSO
Country
Flag of USUS
Related business
Manufacturer
Unknown
Mission
Spacecraft
Bus & Motor
Unknown
Mass
Unknown
Launch date (UTC)
2000-09-21 (26 years ago)
Launch vehicle
Unknown
Launch site
Air Force Western Test Range (AFWTR)
Object type
Payload
Rocket body
Debris
Shape & HBR
Unknown shape, 0.1 m
Radar Cross Section
Medium (>0.1 m² and <1 m²)

Expand to show TLE details & history
Last TLE update: 1 day ago

TLE from 1 day ago
0 NOAA 16 DEB
1 42390U 00055SJ  26167.15923711  .00002012  00000-0  80487-3 0  9994
2 42390  98.6198 241.5880 0015892 175.0360 185.0983 14.29428164534238
Epoch: 2026-06-16T03:49Z
TLE epoch observation values (Epoch: 2026-06-16T03:49:18.086Z)
Latitude
0.00005°
Longitude
-80.17264°
Altitude
807.928 km
Speed
7.443 km/s
True Right ascension
16h 06m 21s
True Declination
0° 00' 00"
Sunlit
Object was in full shadow at epoch
Visualization orbit readout
Latitude
Unknown
Longitude
Unknown
Altitude
Unknown
Speed
Unknown
Apparent Right ascension
Unknown
Apparent Declination
Unknown
Sunlit
N/A
Visualization observer readout
Local Sidereal Time
19:29:54
Azimuth
Unknown
Elevation
Unknown
Doppler factor
Unknown
Orbital elements
Apogee altitude
802.177 km
Perigee altitude
779.392 km
Semi-major axis
7,168.922 km
Eccentricity
0.00159
Inclination
98.6198°
RAAN
241.588°
Arg. of periapsis
175.036°
True anomaly
185.08215°
Mean anomaly
185.0983°
Eccentric anomaly
185.09022°
Mean motion
3.57571 °/min
Orbital period
100.68 mins
BSTAR
0.00080487
Loading maneuver chart data...
Computing Atmospheric mass density...

Documentation

Showing up to 5 results
|